GW2632 Weather Reports


Display with metric or nautical units.
time (UTC)temp
F
wind
direction
speed
MPH
gust
MPH
rain 1hr
in
rain 24hr
in
rain mn
in
humidity
%
barometer
mb
20260502203236 70 199 3.0 4.0 0.12 0.34 0.34 89 1011.1
20260502202729 70 268 4.0 4.0 0.19 0.33 0.33 88 1010.8
20260502202228 70 318 1.0 8.0 0.07 0.31 0.31 88 1011.0
20260502201725 70 285 3.0 4.0 0.00 0.30 0.30 88 1011.0
20260502201221 70 256 4.0 7.0 0.00 0.30 0.30 88 1010.9
20260502200717 70 234 4.0 6.0 0.05 0.30 0.30 88 1011.2
20260502200214 70 256 4.0 6.0 0.05 0.30 0.30 88 1011.2
20260502195712 70 349 1.0 3.0 0.07 0.29 0.29 87 1011.1
20260502195208 70 269 4.0 9.0 0.07 0.29 0.29 86 1011.2
20260502194705 71 350 6.0 7.0 0.00 0.28 0.28 85 1011.2
20260502194202 71 298 4.0 7.0 0.00 0.28 0.28 85 1011.8
20260502193658 71 305 2.0 6.0 0.00 0.28 0.28 86 1011.2
20260502193155 71 266 6.0 8.0 0.05 0.28 0.28 86 1010.9
20260502192651 71 317 10.0 13.0 0.05 0.28 0.28 86 1010.9
20260502192148 71 323 4.0 8.0 0.00 0.27 0.27 85 1010.9
20260502191645 71 316 5.0 9.0 0.00 0.27 0.27 85 1011.3
20260502191142 72 347 5.0 17.0 0.00 0.27 0.27 84 1011.4
20260502190640 74 254 7.0 16.0 0.07 0.27 0.27 82 1011.7
20260502190138 76 291 6.0 21.0 0.07 0.27 0.27 88 1011.7
20260502185632 76 344 0.0 1.0 0.00 0.26 0.26 91 1010.7
20260502185129 75 343 0.0 2.0 0.00 0.26 0.26 91 1010.7
20260502184625 75 258 2.0 4.0 0.00 0.26 0.26 91 1010.5
20260502184120 75 352 0.0 2.0 0.00 0.26 0.26 91 1010.6
20260502183617 74 327 1.0 2.0 0.00 0.26 0.26 91 1010.5
20260502183114 74 345 0.0 1.0 0.00 0.26 0.26 91 1010.6
20260502182609 73 343 1.0 1.0 0.00 0.26 0.26 91 1010.4
20260502182105 73 347 0.0 2.0 0.00 0.26 0.26 91 1010.4
20260502181602 72 300 3.0 3.0 0.00 0.26 0.26 90 1010.6
20260502181101 71 356 1.0 2.0 0.00 0.26 0.26 90 1010.5
20260502180558 71 327 1.0 1.0 0.00 0.26 0.26 88 1010.3
20260502170518 85 164 4.0 13.0 0.00 0.00 0.00 61 1010.1
20260502164002 85 235 7.0 17.0 0.00 0.00 0.00 60 1010.1
20260502163457 86 236 8.0 14.0 0.00 0.00 0.00 61 1010.1
20260502162955 86 260 3.0 11.0 0.00 0.00 0.00 61 1010.4
20260502162451 86 158 4.0 10.0 0.00 0.00 0.00 60 1010.2
20260502161949 85 275 4.0 9.0 0.00 0.00 0.00 60 1010.0
20260502161445 85 224 9.0 19.0 0.00 0.00 0.00 60 1010.3
20260502160943 85 227 9.0 14.0 0.00 0.00 0.00 60 1010.3
20260502160440 85 219 5.0 10.0 0.00 0.00 0.00 62 1010.5
20260502151924 82 223 8.0 10.0 0.00 0.00 0.00 65 1010.7
20260502151420 81 281 4.0 9.0 0.00 0.00 0.00 67 1010.8
20260502150918 80 218 6.0 9.0 0.00 0.00 0.00 66 1010.9
20260502150415 80 212 4.0 6.0 0.00 0.00 0.00 66 1010.9
20260502130301 76 186 6.0 9.0 0.00 0.00 0.00 82 1010.3
20260502123746 75 183 3.0 8.0 0.00 0.00 0.00 87 1010.2
20260502123243 75 162 2.0 6.0 0.00 0.00 0.00 87 1010.3
20260502122739 75 265 2.0 8.0 0.00 0.00 0.00 87 1010.4
20260502122235 75 202 4.0 4.0 0.00 0.00 0.00 88 1010.3
20260502121734 74 230 3.0 4.0 0.00 0.00 0.00 88 1010.1
20260502121232 74 220 2.0 3.0 0.00 0.00 0.00 89 1010.4
20260502120728 74 260 2.0 4.0 0.00 0.00 0.00 90 1010.0
20260502120225 73 202 3.0 7.0 0.00 0.00 0.00 91 1009.9
20260502115723 73 155 4.0 6.0 0.00 0.00 0.00 92 1010.1
20260502115219 73 82 2.0 3.0 0.00 0.00 0.00 92 1010.1
20260502114715 72 275 1.0 4.0 0.00 0.00 0.00 93 1010.1
20260502114213 72 344 2.0 2.0 0.00 0.00 0.00 93 1010.2
20260502113709 72 351 1.0 2.0 0.00 0.00 0.00 93 1010.0
20260502113207 72 132 1.0 2.0 0.00 0.00 0.00 94 1010.3
20260502112705 72 330 1.0 2.0 0.00 0.00 0.00 94 1010.1
20260502112203 71 227 1.0 2.0 0.00 0.00 0.00 94 1009.9
20260502111659 71 310 1.0 2.0 0.00 0.00 0.00 94 1009.9
20260502111157 71 327 1.0 2.0 0.00 0.00 0.00 94 1009.9
20260502110655 71 240 2.0 3.0 0.00 0.00 0.00 94 1009.6
20260502110152 71 326 0.0 2.0 0.00 0.00 0.00 94 1009.5
20260502105649 71 310 0.0 2.0 0.00 0.00 0.00 94 1009.6
20260502105146 71 301 1.0 3.0 0.00 0.00 0.00 94 1009.1
20260502104643 71 277 2.0 2.0 0.00 0.00 0.00 94 1009.4
20260502104141 71 294 2.0 3.0 0.00 0.00 0.00 94 1009.3
20260502103638 71 280 2.0 2.0 0.00 0.00 0.00 94 1009.2
20260502103136 71 329 1.0 3.0 0.00 0.00 0.00 94 1009.2
20260502102633 71 317 0.0 0.0 0.00 0.00 0.00 94 1009.5
20260502102129 71 321 1.0 1.0 0.00 0.00 0.00 94 1009.4
20260502101627 71 332 0.0 1.0 0.00 0.00 0.00 94 1009.3
20260502101125 71 346 0.0 0.0 0.00 0.00 0.00 94 1009.5
20260502100624 71 349 0.0 0.0 0.00 0.00 0.00 94 1009.3
20260502100122 71 340 0.0 0.0 0.00 0.00 0.00 94 1009.7
20260502091055 71 339 0.0 0.0 0.00 0.00 0.00 92 1010.0
20260502090552 71 345 0.0 0.0 0.00 0.00 0.00 92 1010.1
20260502071452 73 334 0.0 0.0 0.00 0.00 0.00 87 1010.1
20260502070950 73 334 1.0 3.0 0.00 0.00 0.00 86 1010.2
20260502070448 73 319 1.0 2.0 0.00 0.00 0.00 86 1010.1
20260502065946 73 325 1.0 2.0 0.00 0.00 0.00 86 1010.0
20260502065444 73 333 1.0 2.0 0.00 0.00 0.00 85 1009.9
20260502064942 74 341 2.0 4.0 0.00 0.00 0.00 85 1010.1
20260502064439 74 318 0.0 2.0 0.00 0.00 0.00 85 1010.3
20260502063936 74 338 0.0 1.0 0.00 0.00 0.00 84 1010.5
20260502063434 74 326 2.0 2.0 0.00 0.00 0.00 84 1010.4
20260502062932 74 300 2.0 2.0 0.00 0.00 0.00 84 1010.7
20260502062429 74 332 0.0 1.0 0.00 0.00 0.00 84 1010.6
20260502061927 74 338 0.0 1.0 0.00 0.00 0.00 83 1010.6
20260502061425 74 336 0.0 1.0 0.00 0.00 0.00 83 1010.3
20260502060921 74 336 0.0 1.0 0.00 0.00 0.00 82 1010.7
20260502060416 74 338 0.0 2.0 0.00 0.00 0.00 82 1010.5
20260502055914 74 345 0.0 2.0 0.00 0.00 0.00 81 1010.8
20260502055412 74 327 1.0 2.0 0.00 0.00 0.00 81 1011.0
20260502054911 75 332 1.0 2.0 0.00 0.00 0.00 81 1010.6
20260502054408 75 0 3.0 3.0 0.00 0.00 0.00 80 1010.6
20260502053905 75 338 0.0 2.0 0.00 0.00 0.00 79 1010.8
20260502053402 75 305 1.0 3.0 0.00 0.00 0.00 79 1010.7
20260502052900 75 321 0.0 1.0 0.00 0.00 0.00 78 1010.9
20260502052358 75 331 1.0 2.0 0.00 0.00 0.00 78 1011.0
20260502051855 75 331 1.0 2.0 0.00 0.00 0.00 77 1010.9
20260502051354 75 341 0.0 1.0 0.00 0.00 0.00 77 1011.0
20260502050850 75 296 1.0 2.0 0.00 0.00 0.00 77 1010.7
20260502050346 75 333 0.0 1.0 0.00 0.00 0.00 77 1010.8
20260502045843 75 337 0.0 0.0 0.00 0.00 0.00 76 1010.9
20260502045340 75 327 0.0 0.0 0.00 0.00 0.00 76 1010.7
20260502044838 75 351 0.0 0.0 0.00 0.00 0.00 76 1011.0
20260502044333 75 342 0.0 2.0 0.00 0.00 0.00 76 1010.9
20260502043831 75 333 1.0 2.0 0.00 0.00 0.00 77 1010.9
20260502043328 74 341 1.0 1.0 0.00 0.00 0.00 79 1010.9
20260502042828 74 343 0.0 0.0 0.00 0.00 0.00 82 1011.0
20260502042325 74 353 0.0 0.0 0.00 0.00 0.00 84 1010.8
20260502041823 74 340 0.0 0.0 0.00 0.00 0.00 83 1010.8
20260502041320 75 345 0.0 0.0 0.00 0.00 0.00 84 1010.7
20260502040817 75 348 0.0 0.0 0.00 0.00 0.00 84 1010.8
20260502040314 75 345 0.0 0.0 0.00 0.00 0.00 84 1010.6
20260502035810 75 339 1.0 1.0 0.00 0.00 0.00 83 1010.5
20260502035307 75 352 0.0 0.0 0.00 0.00 0.00 83 1010.6
20260502034804 75 350 0.0 0.0 0.00 0.00 0.00 83 1010.6
20260502034302 76 354 0.0 0.0 0.00 0.00 0.00 82 1010.8
20260502033800 76 346 0.0 0.0 0.00 0.00 0.00 82 1010.8
20260502033257 76 346 0.0 0.0 0.00 0.00 0.00 82 1011.0
20260502032754 76 345 0.0 0.0 0.00 0.00 0.00 82 1010.9
20260502032250 76 346 0.0 0.0 0.00 0.00 0.00 81 1011.0
20260502031748 77 346 0.0 0.0 0.00 0.00 0.00 80 1010.9
20260502031246 77 346 0.0 0.0 0.00 0.00 0.00 80 1010.9
20260502030745 77 346 0.0 0.0 0.00 0.00 0.00 79 1010.9
20260502030242 77 346 0.0 0.0 0.00 0.00 0.00 79 1011.1
20260502025739 77 352 0.0 0.0 0.00 0.00 0.00 79 1010.9
20260502025237 77 351 0.0 0.0 0.00 0.00 0.00 78 1010.9
20260502024735 78 348 0.0 0.0 0.00 0.00 0.00 78 1011.1
20260502024232 78 349 0.0 0.0 0.00 0.00 0.00 77 1010.9
20260502023730 78 347 0.0 0.0 0.00 0.00 0.00 77 1011.0
20260502023227 78 347 0.0 0.0 0.00 0.00 0.00 76 1010.8
20260502022725 78 347 0.0 0.0 0.00 0.00 0.00 76 1010.8
20260502022221 78 344 0.0 0.0 0.00 0.00 0.00 76 1010.9
20260502021718 79 342 0.0 0.0 0.00 0.00 0.00 76 1010.9
20260502021216 79 345 0.0 0.0 0.00 0.00 0.00 75 1010.8
20260502020713 79 355 0.0 0.0 0.00 0.00 0.00 74 1010.8
20260502020210 79 353 0.0 0.0 0.00 0.00 0.00 74 1010.8
20260502015708 80 347 0.0 0.0 0.00 0.00 0.00 73 1010.9
20260502015203 80 345 0.0 0.0 0.00 0.00 0.00 72 1011.0
20260502014701 80 345 0.0 0.0 0.00 0.00 0.00 72 1010.8
20260502014158 80 345 0.0 0.0 0.00 0.00 0.00 71 1010.8
20260502013654 81 342 0.0 0.0 0.00 0.00 0.00 71 1010.8
20260502013149 81 350 0.0 1.0 0.00 0.00 0.00 71 1010.7
20260502012647 81 359 0.0 1.0 0.00 0.00 0.00 70 1010.6
20260502012145 81 347 0.0 1.0 0.00 0.00 0.00 70 1010.7
20260502011642 82 330 1.0 2.0 0.00 0.00 0.00 69 1010.8
20260502011137 82 349 0.0 2.0 0.00 0.00 0.00 69 1010.6
20260502010635 82 352 1.0 1.0 0.00 0.00 0.00 68 1010.7
20260502010131 82 351 0.0 1.0 0.00 0.00 0.00 68 1010.6
20260502005629 83 351 0.0 3.0 0.00 0.00 0.00 68 1010.3
20260502005127 83 350 0.0 0.0 0.00 0.00 0.00 67 1010.6
20260502004622 83 346 0.0 1.0 0.00 0.00 0.00 67 1010.5
20260502004119 83 352 0.0 2.0 0.00 0.00 0.00 66 1010.4
20260502003617 84 30 1.0 1.0 0.00 0.00 0.00 66 1010.1
20260502003114 85 354 1.0 2.0 0.00 0.00 0.00 63 1010.2
20260502002610 85 1 0.0 1.0 0.00 0.00 0.00 60 1009.9
20260502002108 85 347 0.0 1.0 0.00 0.00 0.00 50 1009.7
20260502001605 86 355 1.0 2.0 0.00 0.00 0.00 50 1009.7
20260502001102 86 358 1.0 1.0 0.00 0.00 0.00 49 1009.6
20260502000600 86 358 0.0 2.0 0.00 0.00 0.00 49 1009.6
20260502000057 86 324 1.0 2.0 0.00 0.00 0.00 48 1009.6
20260501235553 87 333 0.0 1.0 0.00 0.00 0.00 48 1009.4
20260501235049 87 336 0.0 2.0 0.00 0.00 0.00 48 1009.5
20260501234545 87 347 0.0 1.0 0.00 0.00 0.00 48 1009.0
20260501234043 87 329 4.0 6.0 0.00 0.00 0.00 47 1009.1
20260501233541 87 308 2.0 3.0 0.00 0.00 0.00 47 1009.0
20260501233037 88 303 2.0 3.0 0.00 0.00 0.00 47 1009.2
20260501232533 88 347 0.0 6.0 0.00 0.00 0.00 46 1009.0
20260501232031 89 292 2.0 4.0 0.00 0.00 0.00 46 1008.8
20260501231529 89 329 1.0 2.0 0.00 0.00 0.00 46 1009.0
20260501231027 90 331 2.0 3.0 0.00 0.00 0.00 44 1008.8
20260501230526 91 255 3.0 6.0 0.00 0.00 0.00 43 1008.7
20260501230023 91 318 3.0 6.0 0.00 0.00 0.00 43 1008.7
20260501225520 91 334 1.0 2.0 0.00 0.00 0.00 42 1008.7
20260501225016 91 348 0.0 3.0 0.00 0.00 0.00 42 1008.6
20260501224514 91 303 2.0 7.0 0.00 0.00 0.00 42 1008.4
20260501224011 91 261 4.0 4.0 0.00 0.00 0.00 40 1008.4
20260501223507 91 347 0.0 2.0 0.00 0.00 0.00 42 1008.3
20260501223003 92 300 3.0 7.0 0.00 0.00 0.00 42 1008.3
20260501222459 91 313 3.0 4.0 0.00 0.00 0.00 41 1008.2
20260501221955 91 275 2.0 3.0 0.00 0.00 0.00 41 1008.2
20260501221453 91 326 1.0 3.0 0.00 0.00 0.00 42 1008.3
20260501220951 91 306 1.0 2.0 0.00 0.00 0.00 42 1008.1
20260501220448 90 269 1.0 2.0 0.00 0.00 0.00 44 1008.3
20260501215944 90 347 1.0 2.0 0.00 0.00 0.00 44 1008.2
20260501215441 90 28 2.0 4.0 0.00 0.00 0.00 43 1008.0
20260501214937 90 138 4.0 4.0 0.00 0.00 0.00 44 1008.8
20260501214432 91 170 6.0 8.0 0.00 0.00 0.00 44 1008.5
20260501213927 90 1 1.0 3.0 0.00 0.00 0.00 44 1008.4
20260501213425 90 305 2.0 4.0 0.00 0.00 0.00 45 1008.4
20260501212920 90 166 3.0 4.0 0.00 0.00 0.00 45 1008.4
20260501212418 90 357 2.0 4.0 0.00 0.00 0.00 45 1008.5
20260501211914 90 284 1.0 2.0 0.00 0.00 0.00 46 1008.4
20260501211412 91 304 1.0 1.0 0.00 0.00 0.00 43 1008.4
20260501210909 91 22 0.0 3.0 0.00 0.00 0.00 44 1008.3
20260501210406 90 317 2.0 4.0 0.00 0.00 0.00 44 1008.4
20260501205902 90 207 2.0 6.0 0.00 0.00 0.00 45 1008.5
20260501205359 91 337 2.0 3.0 0.00 0.00 0.00 43 1008.7
20260501204856 91 247 2.0 2.0 0.00 0.00 0.00 42 1008.7
20260501204352 92 198 5.0 7.0 0.00 0.00 0.00 45 1008.6
20260501203848 92 331 1.0 3.0 0.00 0.00 0.00 43 1008.8